Flag for Germany Weather past 2 weeks in Helmstedt, Lower Saxony, Germany

Now
39 °F

Partly sunny.


Feels Like: 32 °F
Forecast: 35 / 40 °F
Wind: 10 mph from Southwest

Location: Braunschweig

Current Time: Jan 26, 2015 at 10:36:06 AM

Latest Report: Jan 26, 2015 at 10:20 AM


Visibility: N/A

Pressure: 30.12 "Hg

Humidity: 93%

Dew point: 37 °F

Location of HelmstedtLocation

Historic Weather in Helmstedt — Graph

°F

Helmstedt temperature yesterday

Maximum temperature yesterday: 37 °F (at 7:20 PM)
Minimum temperature yesterday: 28 °F (at 8:20 AM)
Average temperature yesterday: 34 °F

Past Weeks' High & Low Weather Summary

 TemperatureHumidityPressure
High52 °F (Jan 13, 12:50 PM)100% (Jan 17, 8:50 AM)30.30 "Hg (Jan 17, 8:50 AM)
Low23 °F (Jan 21, 6:50 AM)57% (Jan 16, 12:50 PM)29.47 "Hg (Jan 15, 5:20 PM)
Average37 °F84%29.92 "Hg
* Reported Jan 11 9:20 AM — Jan 26 9:20 AM, Helmstedt, Weather by CustomWeather, © 2014

Note: Actual official high and low records may vary slightly from our data, if they occured in-between our weather recording intervals... More about our weather records

Advertising

Helmstedt weather history for previous 24 hours

 ConditionsComfort  
Time TempWeatherWind HumidityBarometerVisibility
9:20 AM
Jan 26
37 °FPartly sunny.8 mph100%30.15 "HgN/A
8:50 AM37 °FPartly sunny.8 mph100%30.15 "Hg5 mi
8:20 AM37 °FOvercast.7 mph100%30.15 "HgN/A
7:50 AM36 °FOvercast.6 mph100%30.18 "Hg4 mi
7:20 AM36 °FPassing clouds.9 mph100%30.18 "Hg5 mi
6:50 AM36 °FPassing clouds.9 mph100%30.18 "Hg5 mi
7:20 PM
Jan 25
37 °FLight rain. Fog.8 mph100%30.30 "Hg2 mi
6:50 PM36 °FRain. Fog.5 mph100%30.30 "Hg1 mi
6:20 PM36 °FRain. Fog.3 mph100%30.30 "Hg2 mi
5:50 PM36 °FRain. Low clouds.3 mph100%30.30 "Hg2 mi
5:20 PM36 °FLight rain. Low clouds.2 mph100%30.30 "Hg3 mi
4:50 PM34 °FRain. Low clouds.5 mph100%30.30 "Hg2 mi
4:20 PM34 °FFog.6 mph100%30.30 "Hg3 mi
3:50 PM34 °FLight snow. Fog.6 mph100%30.30 "Hg3 mi
3:20 PM36 °FRain. Low clouds.7 mph100%30.27 "Hg4 mi
2:50 PM36 °FRain. Low clouds.6 mph100%30.27 "Hg4 mi
2:20 PM36 °FRain. Low clouds.8 mph100%30.27 "Hg4 mi
1:50 PM36 °FLow clouds.8 mph100%30.27 "Hg4 mi
1:20 PM36 °FDrizzle. Low clouds.7 mph100%30.30 "Hg4 mi
12:50 PM36 °FLight rain. Low clouds.7 mph100%30.30 "Hg4 mi
12:20 PM36 °FLow clouds.8 mph100%30.30 "Hg5 mi
11:50 AM36 °FLow clouds.7 mph100%30.30 "HgN/A
11:20 AM36 °FLow clouds.8 mph100%30.30 "HgN/A
10:50 AM34 °FLow clouds.7 mph100%30.30 "Hg5 mi
10:20 AM34 °FLow clouds.6 mph100%30.30 "Hg5 mi
Weather by CustomWeather, © 2014

See weather overviewHow to use our weather pages